EW6799 Weather Reports


time (UTC)temp
F
wind
direction
speed
knots
gust
knots
rain 1hr
in
rain 24hr
in
rain mn
in
humidity
%
barometer
mb
20260906035422 81 278 4.3 8.7 0.00 0.00 0.00 57 1019.4
20260906034921 81 302 4.3 7.0 0.00 0.00 0.00 56 1019.4
20260906034422 82 297 4.3 7.8 0.00 0.00 0.00 55 1019.4
20260906033423 81 325 3.5 6.1 0.00 0.00 0.00 56 1019.6
20260906032904 82 305 2.6 5.2 0.00 0.00 0.00 56 1019.6
20260906032404 81 330 1.7 5.2 0.00 0.00 0.00 57 1019.6
20260906031904 81 295 1.7 4.3 0.00 0.00 0.00 58 1019.6
20260906031404 81 312 1.7 2.6 0.00 0.00 0.00 60 1019.6
20260906030904 81 262 2.6 7.0 0.00 0.00 0.00 61 1019.7
20260906025920 81 279 5.2 7.8 0.00 0.00 0.00 62 1019.7
20260906025421 81 284 5.2 7.8 0.00 0.00 0.00 62 1019.7
20260906024921 81 262 2.6 4.3 0.00 0.00 0.00 63 1019.7
20260906024421 81 256 4.3 6.1 0.00 0.00 0.00 63 1019.7
20260906023921 81 285 0.9 4.3 0.00 0.00 0.00 64 1019.7
20260906023421 81 272 2.6 6.1 0.00 0.00 0.00 64 1019.7
20260906022404 81 289 2.6 5.2 0.00 0.00 0.00 65 1019.8
20260906021904 81 288 3.5 6.1 0.00 0.00 0.00 66 1019.8
20260906021404 81 283 2.6 7.8 0.00 0.00 0.00 66 1019.8
20260906020904 81 286 4.3 7.0 0.00 0.00 0.00 67 1019.8
20260906015922 81 306 4.3 7.0 0.00 0.00 0.00 68 1019.8
20260906014923 81 304 1.7 5.2 0.00 0.00 0.00 72 1019.9
20260906013423 81 255 0.9 2.6 0.00 0.00 0.00 74 1020.0
20260906012904 81 221 0.9 2.6 0.00 0.00 0.00 74 1020.0
20260906012404 81 266 0.0 1.7 0.00 0.00 0.00 75 1020.1
20260906011904 81 251 0.0 0.9 0.00 0.00 0.00 76 1020.1
20260906011404 81 214 0.0 0.0 0.00 0.00 0.00 76 1020.1
20260906010904 82 209 0.9 2.6 0.00 0.00 0.00 76 1020.1
20260906010421 81 248 0.0 1.7 0.00 0.00 0.00 77 1020.2
20260906005921 81 224 0.9 1.7 0.00 0.00 0.00 77 1020.2
20260906005422 81 224 0.0 0.9 0.00 0.00 0.00 77 1020.2
20260906004922 81 287 1.7 2.6 0.00 0.00 0.00 77 1020.2
20260906004422 81 275 1.7 5.2 0.00 0.00 0.00 77 1020.2
20260906003922 82 278 1.7 5.2 0.00 0.00 0.00 77 1020.2
20260906003422 82 279 2.6 6.1 0.00 0.00 0.00 77 1020.2
20260906002903 82 308 4.3 5.2 0.00 0.00 0.00 77 1020.3
20260906002404 82 280 2.6 5.2 0.00 0.00 0.00 76 1020.3
20260906001404 82 277 4.3 7.0 0.00 0.00 0.00 76 1020.5
20260906000904 82 280 3.5 7.0 0.00 0.00 0.00 75 1020.5
20260906000420 82 286 4.3 7.0 0.00 0.00 0.00 75 1020.5
20260905235919 82 290 4.3 6.1 0.00 0.00 0.00 74 1020.6
20260905234420 82 311 2.6 5.2 0.00 0.00 0.00 75 1020.7
20260905233921 82 290 2.6 5.2 0.00 0.00 0.00 75 1020.7
20260905233420 82 289 3.5 6.1 0.00 0.00 0.00 75 1020.7
20260905232903 82 292 2.6 6.1 0.00 0.00 0.00 75 1020.7
20260905231904 82 310 2.6 4.3 0.00 0.00 0.00 76 1020.8
20260905230403 82 275 5.2 7.0 0.00 0.00 0.00 78 1020.9
20260905225903 82 280 2.6 4.3 0.00 0.00 0.00 79 1020.9
20260905225403 82 325 1.7 2.6 0.00 0.00 0.00 81 1020.9
20260905224902 82 321 2.6 5.2 0.00 0.00 0.00 81 1020.9
20260905224402 82 299 2.6 4.3 0.00 0.00 0.00 81 1020.9
20260905223903 83 295 0.9 2.6 0.00 0.00 0.00 81 1020.9
20260905222403 83 266 0.9 1.7 0.00 0.00 0.00 82 1020.8
20260905221905 82 281 0.9 2.6 0.00 0.00 0.00 82 1020.9
20260905221404 82 359 0.0 1.7 0.00 0.00 0.00 81 1020.8
20260905215427 82 359 0.0 1.7 0.00 0.00 0.00 84 1020.9
20260905214927 82 188 0.0 1.7 0.00 0.00 0.00 85 1021.0
20260905214427 82 188 0.0 0.9 0.00 0.00 0.00 85 1021.0
20260905213927 82 188 0.0 0.9 0.00 0.00 0.00 86 1021.0
20260905213428 82 188 0.0 0.0 0.00 0.00 0.00 86 1021.0
20260905212903 82 188 0.0 0.0 0.00 0.00 0.00 86 1021.1
20260905212404 82 188 0.0 0.0 0.00 0.00 0.00 87 1021.1
20260905211904 82 188 0.0 0.0 0.00 0.00 0.00 87 1021.1
20260905211404 82 188 0.0 0.0 0.00 0.00 0.00 88 1021.1
20260905210904 82 188 0.0 0.9 0.00 0.00 0.00 88 1021.2
20260905210422 82 188 0.0 1.7 0.00 0.00 0.00 88 1021.2
20260905205922 82 160 0.0 0.0 0.00 0.00 0.00 89 1021.2
20260905205423 82 160 0.0 0.0 0.00 0.00 0.00 89 1021.2
20260905204422 82 160 0.9 2.6 0.00 0.00 0.00 89 1021.2
20260905203923 82 124 1.7 2.6 0.00 0.00 0.00 89 1021.2
20260905202904 82 119 0.9 2.6 0.00 0.00 0.00 89 1021.3
20260905201904 82 120 0.9 2.6 0.00 0.00 0.00 89 1021.2
20260905201404 81 120 0.9 1.7 0.00 0.00 0.00 89 1021.2
20260905200905 82 120 0.9 1.7 0.00 0.00 0.00 89 1021.1
20260905200425 82 120 1.7 2.6 0.00 0.00 0.00 89 1021.1
20260905195925 82 136 1.7 2.6 0.00 0.00 0.00 89 1021.1
20260905195426 82 92 0.9 1.7 0.00 0.00 0.00 89 1021.1
20260905194925 82 137 0.9 2.6 0.00 0.00 0.00 89 1021.0
20260905194426 82 121 0.9 2.6 0.00 0.00 0.00 89 1021.0
20260905193925 82 74 0.9 2.6 0.00 0.00 0.00 89 1021.1
20260905193426 82 74 1.7 2.6 0.00 0.00 0.00 89 1021.2
20260905192903 82 131 0.9 2.6 0.00 0.00 0.00 89 1021.1
20260905191904 82 59 0.9 2.6 0.00 0.00 0.00 89 1021.1
20260905191404 82 91 1.7 2.6 0.00 0.00 0.00 89 1021.1
20260905190904 82 127 1.7 2.6 0.00 0.00 0.00 89 1021.1
20260905190423 82 118 2.6 2.6 0.00 0.00 0.00 89 1021.1
20260905185923 82 62 1.7 2.6 0.00 0.00 0.00 88 1021.1
20260905184924 82 146 1.7 2.6 0.00 0.00 0.00 88 1021.0
20260905184424 82 125 0.9 2.6 0.00 0.00 0.00 88 1021.1
20260905183924 82 121 2.6 4.3 0.00 0.00 0.00 88 1021.0
20260905183425 82 140 2.6 4.3 0.00 0.00 0.00 88 1021.0
20260905182904 82 129 2.6 2.6 0.00 0.00 0.00 88 1020.9
20260905182403 82 135 2.6 4.3 0.00 0.00 0.00 87 1020.9
20260905181904 83 127 1.7 4.3 0.00 0.00 0.00 87 1020.8
20260905181404 83 126 2.6 4.3 0.00 0.00 0.00 87 1020.8
20260905180904 83 129 1.7 4.3 0.00 0.00 0.00 87 1020.9
20260905180422 83 168 2.6 4.3 0.00 0.00 0.00 86 1020.8
20260905175922 83 105 2.6 4.3 0.00 0.00 0.00 86 1020.8
20260905174921 83 141 1.7 4.3 0.00 0.00 0.00 86 1020.8
20260905174422 83 125 3.5 5.2 0.00 0.00 0.00 86 1020.8
20260905173922 83 130 2.6 5.2 0.00 0.00 0.00 86 1020.8
20260905173422 83 136 4.3 7.0 0.00 0.00 0.00 86 1020.9
20260905172904 83 116 4.3 7.0 0.00 0.00 0.00 86 1020.8
20260905172404 83 116 3.5 6.1 0.00 0.00 0.00 85 1020.8
20260905171904 84 133 2.6 7.0 0.00 0.00 0.00 85 1020.8
20260905171404 84 176 2.6 5.2 0.00 0.00 0.00 84 1020.8
20260905165921 84 170 3.5 7.0 0.00 0.00 0.00 83 1020.8
20260905165420 84 145 2.6 6.1 0.00 0.00 0.00 83 1020.8
20260905164921 84 123 3.5 7.0 0.00 0.00 0.00 83 1020.8
20260905164421 84 140 4.3 6.1 0.00 0.00 0.00 83 1020.8
20260905163921 84 146 3.5 6.1 0.00 0.00 0.00 83 1020.8
20260905163422 84 135 4.3 7.0 0.00 0.00 0.00 83 1020.8
20260905162404 84 144 5.2 7.0 0.00 0.00 0.00 82 1020.7
20260905161903 84 142 2.6 5.2 0.00 0.00 0.00 83 1020.8
20260905161404 84 135 3.5 6.1 0.00 0.00 0.00 82 1020.9
20260905160904 84 113 2.6 5.2 0.00 0.00 0.00 83 1020.9
20260905160424 84 113 3.5 7.0 0.00 0.00 0.00 83 1020.8
20260905155922 84 145 3.5 6.1 0.00 0.00 0.00 83 1020.8
20260905155423 84 125 5.2 6.1 0.00 0.00 0.00 81 1020.8
20260905154922 84 114 3.5 7.0 0.00 0.00 0.00 82 1020.8
20260905154423 85 120 2.6 5.2 0.00 0.00 0.00 82 1020.8
20260905153923 85 152 3.5 6.1 0.00 0.00 0.00 81 1020.8
20260905153423 85 170 2.6 6.1 0.00 0.00 0.00 82 1020.8
20260905152404 86 171 2.6 6.1 0.00 0.00 0.00 80 1020.9
20260905151903 85 162 2.6 7.0 0.00 0.00 0.00 79 1020.9
20260905151405 86 125 4.3 7.0 0.00 0.00 0.00 78 1021.0
20260905150905 86 145 2.6 5.2 0.00 0.00 0.00 76 1021.1
20260905150422 86 134 3.5 6.1 0.00 0.00 0.00 76 1021.1
20260905145921 86 143 3.5 5.2 0.00 0.00 0.00 74 1021.1
20260905145421 86 123 3.5 6.1 0.00 0.00 0.00 74 1021.1
20260905144921 86 121 4.3 6.1 0.00 0.00 0.00 74 1021.2
20260905144421 87 152 2.6 5.2 0.00 0.00 0.00 74 1021.2
20260905143922 87 129 3.5 6.1 0.00 0.00 0.00 71 1021.2
20260905142904 88 120 2.6 5.2 0.00 0.00 0.00 70 1021.3
20260905142404 87 148 3.5 5.2 0.00 0.00 0.00 69 1021.4
20260905141904 88 132 2.6 5.2 0.00 0.00 0.00 69 1021.3
20260905141404 88 68 1.7 5.2 0.00 0.00 0.00 70 1021.4
20260905140904 88 113 2.6 6.1 0.00 0.00 0.00 69 1021.3
20260905135921 88 130 4.3 7.0 0.00 0.00 0.00 64 1021.3
20260905135421 88 103 2.6 5.2 0.00 0.00 0.00 65 1021.3
20260905134921 88 60 3.5 6.1 0.00 0.00 0.00 63 1021.4
20260905134420 88 105 4.3 5.2 0.00 0.00 0.00 65 1021.4
20260905133922 88 76 2.6 5.2 0.00 0.00 0.00 66 1021.4
20260905133422 88 89 3.5 5.2 0.00 0.00 0.00 66 1021.5
20260905132904 88 73 2.6 5.2 0.00 0.00 0.00 67 1021.5
20260905132404 87 81 4.3 6.1 0.00 0.00 0.00 69 1021.5
20260905131404 88 64 4.3 6.1 0.00 0.00 0.00 65 1021.6
20260905130904 88 99 3.5 5.2 0.00 0.00 0.00 64 1021.6
20260905130423 88 68 4.3 5.2 0.00 0.00 0.00 65 1021.6
20260905125923 87 96 4.3 5.2 0.00 0.00 0.00 64 1021.6
20260905125423 87 81 3.5 5.2 0.00 0.00 0.00 66 1021.6
20260905124923 87 65 3.5 5.2 0.00 0.00 0.00 65 1021.6
20260905124423 87 79 2.6 4.3 0.00 0.00 0.00 68 1021.6
20260905123924 87 105 2.6 6.1 0.00 0.00 0.00 68 1021.7
20260905123423 86 65 2.6 5.2 0.00 0.00 0.00 68 1021.7
20260905122904 86 85 2.6 4.3 0.00 0.00 0.00 68 1021.8
20260905122404 85 115 3.5 5.2 0.00 0.00 0.00 71 1021.8
20260905121904 86 126 4.3 6.1 0.00 0.00 0.00 69 1021.8
20260905121403 86 103 4.3 6.1 0.00 0.00 0.00 70 1021.8
20260905120421 86 97 2.6 5.2 0.00 0.00 0.00 67 1021.8
20260905115921 86 85 3.5 5.2 0.00 0.00 0.00 67 1021.8
20260905113922 86 113 3.5 5.2 0.00 0.00 0.00 70 1021.9
20260905113422 86 108 4.3 5.2 0.00 0.00 0.00 69 1021.9
20260905112904 85 106 2.6 5.2 0.00 0.00 0.00 72 1021.9
20260905112404 85 118 2.6 5.2 0.00 0.00 0.00 71 1021.8
20260905111903 85 93 3.5 5.2 0.00 0.00 0.00 73 1021.8
20260905111403 85 116 4.3 6.1 0.00 0.00 0.00 73 1021.7
20260905110904 84 115 3.5 5.2 0.00 0.00 0.00 73 1021.7
20260905110420 84 118 3.5 5.2 0.00 0.00 0.00 74 1021.7
20260905104920 85 108 2.6 6.1 0.00 0.00 0.00 74 1021.7
20260905104420 84 112 2.6 5.2 0.00 0.00 0.00 76 1021.7
20260905103920 84 84 2.6 5.2 0.00 0.00 0.00 76 1021.8
20260905103421 84 81 2.6 5.2 0.00 0.00 0.00 76 1021.8
20260905102903 84 93 2.6 5.2 0.00 0.00 0.00 75 1021.8
20260905101904 84 83 2.6 6.1 0.00 0.00 0.00 74 1021.7
20260905101404 84 104 2.6 6.1 0.00 0.00 0.00 73 1021.8
20260905100905 84 99 2.6 6.1 0.00 0.00 0.00 74 1021.8
20260905100422 83 85 3.5 5.2 0.00 0.00 0.00 75 1021.8
20260905095921 83 116 4.3 6.1 0.00 0.00 0.00 75 1021.8
20260905095421 83 114 2.6 5.2 0.00 0.00 0.00 74 1021.8
20260905094423 83 64 2.6 5.2 0.00 0.00 0.00 73 1021.8
20260905093423 83 99 2.6 4.3 0.00 0.00 0.00 72 1021.7
20260905092903 83 104 3.5 4.3 0.00 0.00 0.00 73 1021.7
20260905092405 83 53 3.5 4.3 0.00 0.00 0.00 73 1021.7
20260905091903 83 80 3.5 5.2 0.00 0.00 0.00 73 1021.7
20260905091403 83 90 2.6 5.2 0.00 0.00 0.00 73 1021.6
20260905090904 83 93 2.6 5.2 0.00 0.00 0.00 73 1021.6
20260905090421 83 82 3.5 5.2 0.00 0.00 0.00 75 1021.4
20260905085921 83 86 3.5 5.2 0.00 0.00 0.00 75 1021.4
20260905084921 83 94 4.3 5.2 0.00 0.00 0.00 76 1021.3
20260905084421 83 69 2.6 5.2 0.00 0.00 0.00 78 1021.3
20260905083921 83 60 2.6 4.3 0.00 0.00 0.00 77 1021.2
20260905083421 83 71 2.6 4.3 0.00 0.00 0.00 78 1021.2
20260905082403 83 72 3.5 5.2 0.00 0.00 0.00 73 1021.1
20260905081904 83 86 1.7 2.6 0.00 0.00 0.00 72 1021.0
20260905081404 83 88 2.6 4.3 0.00 0.00 0.00 71 1021.0
20260905080904 84 40 2.6 4.3 0.00 0.00 0.00 71 1021.0
20260905080420 83 86 1.7 2.6 0.00 0.00 0.00 69 1021.0
20260905075919 83 72 2.6 2.6 0.00 0.00 0.00 69 1020.9
20260905075419 84 85 2.6 4.3 0.00 0.00 0.00 67 1020.9
20260905074920 84 56 1.7 2.6 0.00 0.00 0.00 67 1020.8
20260905074420 84 61 0.9 1.7 0.00 0.00 0.00 66 1020.8
20260905073920 84 61 0.9 2.6 0.00 0.00 0.00 66 1020.7
20260905073421 83 91 1.7 2.6 0.00 0.00 0.00 65 1020.7
20260905072403 84 83 0.0 0.0 0.00 0.00 0.00 64 1020.6
20260905071904 84 321 0.0 0.9 0.00 0.00 0.00 65 1020.7
20260905070904 83 321 0.0 1.7 0.00 0.00 0.00 67 1020.6
20260905070421 82 307 0.9 2.6 0.00 0.00 0.00 68 1020.5
20260905064922 82 289 0.9 1.7 0.00 0.00 0.00 69 1020.3
20260905064422 81 295 0.9 2.6 0.00 0.00 0.00 70 1020.3
20260905063922 81 323 0.0 2.6 0.00 0.00 0.00 71 1020.2
20260905063422 80 303 1.7 2.6 0.00 0.00 0.00 72 1020.3
20260905062404 80 293 1.7 2.6 0.00 0.00 0.00 73 1020.1
20260905061903 80 320 0.9 2.6 0.00 0.00 0.00 73 1020.0
20260905061404 80 302 1.7 2.6 0.00 0.00 0.00 73 1020.0
20260905060904 80 321 1.7 2.6 0.00 0.00 0.00 74 1020.0
20260905060421 79 329 1.7 2.6 0.00 0.00 0.00 74 1020.0
20260905055921 79 324 1.7 2.6 0.00 0.00 0.00 75 1020.0
20260905055421 79 323 0.9 1.7 0.00 0.00 0.00 75 1019.9
20260905054921 79 287 0.9 1.7 0.00 0.00 0.00 75 1019.8
20260905054421 79 301 1.7 6.1 0.00 0.00 0.00 75 1019.9
20260905053921 79 258 2.6 6.1 0.00 0.00 0.00 76 1019.8
20260905053422 79 305 1.7 2.6 0.00 0.00 0.00 76 1019.7
20260905052403 79 290 0.9 2.6 0.00 0.00 0.00 76 1019.6
20260905051904 79 291 1.7 2.6 0.00 0.00 0.00 76 1019.6
20260905051404 79 267 0.9 2.6 0.00 0.00 0.00 76 1019.6
20260905050421 79 298 0.9 2.6 0.00 0.00 0.00 77 1019.6
20260905045922 79 300 2.6 2.6 0.00 0.00 0.00 77 1019.6
20260905045422 79 311 1.7 2.6 0.00 0.00 0.00 77 1019.6
20260905044922 79 299 1.7 2.6 0.00 0.00 0.00 78 1019.6
20260905044422 79 295 1.7 2.6 0.00 0.00 0.00 78 1019.5
20260905043923 79 275 1.7 2.6 0.00 0.00 0.00 78 1019.5
20260905043422 79 282 1.7 2.6 0.00 0.00 0.00 78 1019.4
20260905042404 79 294 1.7 2.6 0.00 0.00 0.00 78 1019.4
20260905041905 79 300 1.7 2.6 0.00 0.00 0.00 78 1019.3
20260905041404 79 308 2.6 4.3 0.00 0.00 0.00 78 1019.3
20260905040904 79 288 1.7 4.3 0.00 0.00 0.00 79 1019.4